Time,TemperatureF,DewpointF,PressureIn,WindDirection,WindDirectionDegrees,WindSpeedMPH,WindSpeedGustMPH,Humidity,HourlyPrecipIn,Conditions,Clouds,dailyrainin,SoftwareType,DateUTC
2013-01-22 00:04:00,20.0,18.0,29.82,SE,124,0.0,0.0,93,0.00,,,0.00,,2013-01-22 05:04:00,
2013-01-22 00:12:00,20.0,18.0,29.82,SE,124,0.0,0.0,93,0.00,,,0.00,,2013-01-22 05:12:00,
2013-01-22 00:23:00,21.0,19.0,29.81,SE,124,0.0,1.0,92,0.00,,,0.00,,2013-01-22 05:23:00,
2013-01-22 00:33:00,21.0,19.0,29.81,SE,124,0.0,1.0,92,0.00,,,0.00,,2013-01-22 05:33:00,
2013-01-22 00:43:00,21.0,19.0,29.81,SE,124,0.0,0.0,92,0.00,,,0.00,,2013-01-22 05:43:00,
2013-01-22 00:53:00,21.0,19.0,29.80,SE,124,0.0,0.0,92,0.00,,,0.00,,2013-01-22 05:53:00,
2013-01-22 01:02:00,21.0,19.0,29.78,WNW,283,0.0,2.0,92,0.00,,,0.00,,2013-01-22 06:02:00,
2013-01-22 01:12:00,21.0,19.0,29.78,WNW,283,0.0,2.0,92,0.00,,,0.00,,2013-01-22 06:12:00,
2013-01-22 01:22:00,21.0,19.0,29.80,West,276,0.0,1.0,92,0.00,,,0.00,,2013-01-22 06:22:00,
2013-01-22 01:33:00,21.0,19.0,29.79,West,275,0.0,1.0,92,0.00,,,0.00,,2013-01-22 06:33:00,
2013-01-22 01:43:00,21.0,19.0,29.79,West,275,0.0,1.0,92,0.00,,,0.00,,2013-01-22 06:43:00,
2013-01-22 01:53:00,21.0,19.0,29.78,West,275,0.0,0.0,91,0.00,,,0.00,,2013-01-22 06:53:00,
2013-01-22 02:02:00,20.0,18.0,29.79,West,275,0.0,0.0,91,0.00,,,0.00,,2013-01-22 07:02:00,
2013-01-22 02:12:00,20.0,18.0,29.79,West,275,0.0,0.0,91,0.00,,,0.00,,2013-01-22 07:12:00,
2013-01-22 02:22:00,19.0,17.0,29.79,West,275,0.0,0.0,91,0.00,,,0.00,,2013-01-22 07:22:00,
2013-01-22 02:33:00,18.0,16.0,29.79,West,275,0.0,0.0,91,0.00,,,0.00,,2013-01-22 07:33:00,
2013-01-22 02:42:00,18.0,16.0,29.79,West,275,0.0,0.0,91,0.00,,,0.00,,2013-01-22 07:42:00,
2013-01-22 02:53:00,18.0,16.0,29.78,West,275,0.0,0.0,92,0.00,,,0.00,,2013-01-22 07:53:00,
2013-01-22 03:02:00,17.0,15.0,29.78,West,275,0.0,0.0,92,0.00,,,0.00,,2013-01-22 08:02:00,
2013-01-22 03:12:00,17.0,15.0,29.78,West,275,0.0,0.0,92,0.00,,,0.00,,2013-01-22 08:12:00,
2013-01-22 03:22:00,16.0,14.0,29.78,West,276,0.0,0.0,93,0.00,,,0.00,,2013-01-22 08:22:00,
2013-01-22 03:32:00,16.0,14.0,29.78,West,275,0.0,0.0,92,0.00,,,0.00,,2013-01-22 08:32:00,
2013-01-22 03:43:00,16.0,14.0,29.78,West,275,0.0,0.0,92,0.00,,,0.00,,2013-01-22 08:43:00,
2013-01-22 03:53:00,15.0,13.0,29.78,West,276,0.0,0.0,93,0.00,,,0.00,,2013-01-22 08:53:00,
2013-01-22 04:02:00,16.0,15.0,29.78,West,276,0.0,0.0,94,0.00,,,0.00,,2013-01-22 09:02:00,
2013-01-22 04:12:00,16.0,15.0,29.78,West,276,0.0,0.0,94,0.00,,,0.00,,2013-01-22 09:12:00,
2013-01-22 04:22:00,16.0,15.0,29.78,West,276,0.0,0.0,94,0.00,,,0.00,,2013-01-22 09:22:00,
2013-01-22 04:32:00,16.0,15.0,29.78,West,275,0.0,0.0,94,0.00,,,0.00,,2013-01-22 09:32:00,
2013-01-22 04:43:00,16.0,15.0,29.78,West,275,0.0,0.0,94,0.00,,,0.00,,2013-01-22 09:43:00,
2013-01-22 04:53:00,16.0,14.0,29.78,West,275,0.0,0.0,93,0.00,,,0.00,,2013-01-22 09:53:00,
2013-01-22 05:02:00,15.0,13.0,29.78,West,276,0.0,0.0,93,0.00,,,0.00,,2013-01-22 10:02:00,
2013-01-22 05:12:00,15.0,13.0,29.78,West,276,0.0,0.0,93,0.00,,,0.00,,2013-01-22 10:12:00,
2013-01-22 05:22:00,16.0,15.0,29.78,West,275,0.0,0.0,94,0.00,,,0.00,,2013-01-22 10:22:00,
2013-01-22 05:32:00,16.0,15.0,29.78,West,275,0.0,0.0,94,0.00,,,0.00,,2013-01-22 10:32:00,
2013-01-22 05:42:00,16.0,15.0,29.78,West,275,0.0,0.0,94,0.00,,,0.00,,2013-01-22 10:42:00,
2013-01-22 05:53:00,17.0,15.0,29.78,West,275,0.0,0.0,93,0.00,,,0.00,,2013-01-22 10:53:00,
2013-01-22 06:02:00,16.0,14.0,29.78,West,275,0.0,0.0,93,0.00,,,0.00,,2013-01-22 11:02:00,
2013-01-22 06:12:00,16.0,14.0,29.78,West,275,0.0,0.0,93,0.00,,,0.00,,2013-01-22 11:12:00,
2013-01-22 06:23:00,16.0,14.0,29.79,West,276,0.0,0.0,93,0.00,,,0.00,,2013-01-22 11:23:00,
2013-01-22 06:33:00,16.0,14.0,29.79,West,275,0.0,1.0,93,0.00,,,0.00,,2013-01-22 11:33:00,
2013-01-22 06:43:00,16.0,14.0,29.79,West,275,0.0,1.0,93,0.00,,,0.00,,2013-01-22 11:43:00,
2013-01-22 06:53:00,16.0,14.0,29.80,West,276,0.0,1.0,92,0.00,,,0.00,,2013-01-22 11:53:00,
2013-01-22 07:04:00,16.0,14.0,29.80,West,275,0.0,1.0,93,0.00,,,0.00,,2013-01-22 12:04:00,
2013-01-22 07:13:00,16.0,14.0,29.80,West,275,0.0,1.0,93,0.00,,,0.00,,2013-01-22 12:13:00,
2013-01-22 07:23:00,16.0,14.0,29.80,NW,318,1.0,2.0,93,0.00,,,0.00,,2013-01-22 12:23:00,
2013-01-22 07:33:00,16.0,14.0,29.80,NW,318,1.0,2.0,93,0.00,,,0.00,,2013-01-22 12:33:00,
2013-01-22 07:43:00,17.0,15.0,29.81,NW,321,2.0,3.0,92,0.00,,,0.00,,2013-01-22 12:43:00,
2013-01-22 07:53:00,17.0,14.0,29.82,NW,305,0.0,4.0,89,0.00,,,0.00,,2013-01-22 12:53:00,
2013-01-22 08:04:00,17.0,14.0,29.82,NNE,25,1.0,4.0,88,0.00,,,0.00,,2013-01-22 13:04:00,
2013-01-22 08:14:00,17.0,14.0,29.82,NNE,25,1.0,4.0,88,0.00,,,0.00,,2013-01-22 13:14:00,
2013-01-22 08:23:00,18.0,15.0,29.83,North,360,2.0,6.0,86,0.00,,,0.00,,2013-01-22 13:23:00,
2013-01-22 08:33:00,18.0,14.0,29.83,NE,51,1.0,8.0,85,0.00,,,0.00,,2013-01-22 13:33:00,
2013-01-22 08:43:00,18.0,14.0,29.83,NE,51,1.0,8.0,85,0.00,,,0.00,,2013-01-22 13:43:00,
2013-01-22 08:54:00,18.0,13.0,29.84,NW,307,2.0,7.0,81,0.00,,,0.00,,2013-01-22 13:54:00,
2013-01-22 09:03:00,18.0,13.0,29.84,WSW,242,3.0,10.0,79,0.00,,,0.00,,2013-01-22 14:03:00,
2013-01-22 09:13:00,18.0,13.0,29.84,WSW,242,3.0,10.0,79,0.00,,,0.00,,2013-01-22 14:13:00,
2013-01-22 09:23:00,19.0,12.0,29.85,SSE,160,3.0,11.0,75,0.00,,,0.00,,2013-01-22 14:23:00,
2013-01-22 09:34:00,19.0,12.0,29.85,South,191,3.0,12.0,73,0.00,,,0.00,,2013-01-22 14:34:00,
2013-01-22 09:44:00,19.0,12.0,29.85,South,191,3.0,12.0,73,0.00,,,0.00,,2013-01-22 14:44:00,
2013-01-22 09:54:00,20.0,11.0,29.85,NW,309,2.0,12.0,69,0.00,,,0.00,,2013-01-22 14:54:00,
2013-01-22 10:04:00,21.0,12.0,29.86,NW,318,4.0,11.0,67,0.00,,,0.00,,2013-01-22 15:04:00,
2013-01-22 10:13:00,21.0,12.0,29.86,NW,318,4.0,11.0,67,0.00,,,0.00,,2013-01-22 15:13:00,
2013-01-22 10:24:00,21.0,11.0,29.86,SSW,206,2.0,10.0,64,0.00,,,0.00,,2013-01-22 15:24:00,
2013-01-22 10:34:00,22.0,11.0,29.87,WSW,249,2.0,9.0,61,0.00,,,0.00,,2013-01-22 15:34:00,
2013-01-22 10:43:00,22.0,11.0,29.87,WSW,249,2.0,9.0,61,0.00,,,0.00,,2013-01-22 15:43:00,
2013-01-22 10:54:00,21.0,9.0,29.87,WNW,298,5.0,11.0,58,0.00,,,0.00,,2013-01-22 15:54:00,
2013-01-22 11:04:00,21.0,9.0,29.88,West,280,4.0,10.0,58,0.00,,,0.00,,2013-01-22 16:04:00,
2013-01-22 11:13:00,21.0,9.0,29.88,West,280,4.0,10.0,58,0.00,,,0.00,,2013-01-22 16:13:00,
2013-01-22 11:24:00,21.0,7.0,29.87,WSW,238,3.0,11.0,55,0.00,,,0.00,,2013-01-22 16:24:00,
2013-01-22 11:33:00,22.0,8.0,29.87,WNW,288,3.0,8.0,55,0.00,,,0.00,,2013-01-22 16:33:00,
2013-01-22 11:43:00,22.0,8.0,29.87,WNW,288,3.0,8.0,55,0.00,,,0.00,,2013-01-22 16:43:00,
2013-01-22 11:54:00,22.0,8.0,29.86,WNW,293,2.0,8.0,55,0.00,,,0.00,,2013-01-22 16:54:00,
2013-01-22 12:04:00,21.0,8.0,29.86,NNW,346,3.0,14.0,56,0.00,,,0.00,,2013-01-22 17:04:00,
2013-01-22 12:13:00,21.0,8.0,29.86,NNW,346,3.0,14.0,56,0.00,,,0.00,,2013-01-22 17:13:00,
2013-01-22 12:23:00,21.0,8.0,29.86,NNW,335,5.0,10.0,56,0.00,,,0.00,,2013-01-22 17:23:00,
2013-01-22 12:34:00,21.0,9.0,29.86,WNW,301,1.0,7.0,58,0.00,,,0.00,,2013-01-22 17:34:00,
2013-01-22 12:44:00,21.0,9.0,29.86,WNW,301,1.0,7.0,58,0.00,,,0.00,,2013-01-22 17:44:00,
2013-01-22 12:54:00,21.0,5.0,29.86,WNW,292,4.0,9.0,50,0.00,,,0.00,,2013-01-22 17:54:00,
2013-01-22 13:04:00,21.0,6.0,29.86,West,266,2.0,8.0,52,0.00,,,0.00,,2013-01-22 18:04:00,
2013-01-22 13:13:00,21.0,6.0,29.86,West,266,2.0,8.0,52,0.00,,,0.00,,2013-01-22 18:13:00,
2013-01-22 13:24:00,21.0,7.0,29.86,WNW,290,2.0,7.0,53,0.00,,,0.00,,2013-01-22 18:24:00,
2013-01-22 13:34:00,22.0,6.0,29.86,SE,143,4.0,9.0,49,0.00,,,0.00,,2013-01-22 18:34:00,
2013-01-22 13:43:00,22.0,6.0,29.86,SE,143,4.0,9.0,49,0.00,,,0.00,,2013-01-22 18:43:00,
2013-01-22 13:54:00,23.0,6.0,29.86,NW,316,4.0,10.0,47,0.00,,,0.00,,2013-01-22 18:54:00,
2013-01-22 14:04:00,22.0,4.0,29.86,NW,307,3.0,8.0,45,0.00,,,0.00,,2013-01-22 19:04:00,
2013-01-22 14:13:00,22.0,4.0,29.86,NW,307,3.0,8.0,45,0.00,,,0.00,,2013-01-22 19:13:00,
2013-01-22 14:24:00,21.0,3.0,29.87,West,280,4.0,10.0,45,0.00,,,0.00,,2013-01-22 19:24:00,
2013-01-22 14:34:00,21.0,3.0,29.88,WNW,292,4.0,9.0,44,0.00,,,0.00,,2013-01-22 19:34:00,
2013-01-22 14:43:00,21.0,3.0,29.88,WNW,292,4.0,9.0,44,0.00,,,0.00,,2013-01-22 19:43:00,
2013-01-22 14:54:00,21.0,3.0,29.89,NNW,334,2.0,7.0,44,0.00,,,0.00,,2013-01-22 19:54:00,
2013-01-22 15:03:00,21.0,2.0,29.89,NNE,28,5.0,8.0,43,0.00,,,0.00,,2013-01-22 20:03:00,
2013-01-22 15:13:00,21.0,2.0,29.89,NNE,28,5.0,8.0,43,0.00,,,0.00,,2013-01-22 20:13:00,
2013-01-22 15:23:00,20.0,2.0,29.91,NW,305,4.0,8.0,45,0.00,,,0.00,,2013-01-22 20:23:00,
2013-01-22 15:33:00,21.0,3.0,29.91,West,276,2.0,7.0,44,0.00,,,0.00,,2013-01-22 20:33:00,
2013-01-22 15:43:00,21.0,3.0,29.91,West,276,2.0,7.0,44,0.00,,,0.00,,2013-01-22 20:43:00,
2013-01-22 15:53:00,21.0,-1.0,29.92,WSW,257,4.0,15.0,38,0.00,,,0.00,,2013-01-22 20:53:00,
2013-01-22 16:04:00,21.0,-1.0,29.92,East,101,3.0,13.0,37,0.00,,,0.00,,2013-01-22 21:04:00,
2013-01-22 16:13:00,21.0,-1.0,29.92,East,101,3.0,13.0,37,0.00,,,0.00,,2013-01-22 21:13:00,
2013-01-22 16:23:00,20.0,-1.0,29.93,SE,139,3.0,8.0,38,0.00,,,0.00,,2013-01-22 21:23:00,
2013-01-22 16:33:00,19.0,-1.0,29.93,WNW,287,2.0,8.0,41,0.00,,,0.00,,2013-01-22 21:33:00,
2013-01-22 16:43:00,19.0,-1.0,29.93,WNW,287,2.0,8.0,41,0.00,,,0.00,,2013-01-22 21:43:00,
2013-01-22 16:53:00,18.0,1.0,29.94,WNW,302,2.0,8.0,46,0.00,,,0.00,,2013-01-22 21:53:00,
2013-01-22 17:03:00,18.0,1.0,29.94,WNW,290,1.0,6.0,46,0.00,,,0.00,,2013-01-22 22:03:00,
2013-01-22 17:13:00,18.0,1.0,29.94,WNW,290,1.0,6.0,46,0.00,,,0.00,,2013-01-22 22:13:00,
2013-01-22 17:23:00,17.0,1.0,29.96,West,280,2.0,9.0,48,0.00,,,0.00,,2013-01-22 22:23:00,
2013-01-22 17:33:00,17.0,1.0,29.96,West,280,2.0,9.0,48,0.00,,,0.00,,2013-01-22 22:33:00,
2013-01-22 17:43:00,17.0,1.0,29.96,WNW,293,1.0,5.0,48,0.00,,,0.00,,2013-01-22 22:43:00,
2013-01-22 17:53:00,16.0,2.0,29.97,NW,318,1.0,3.0,52,0.00,,,0.00,,2013-01-22 22:53:00,
2013-01-22 18:03:00,16.0,2.0,29.98,WNW,294,2.0,8.0,54,0.00,,,0.00,,2013-01-22 23:03:00,
2013-01-22 18:12:00,16.0,2.0,29.98,WNW,294,2.0,8.0,54,0.00,,,0.00,,2013-01-22 23:12:00,
2013-01-22 18:24:00,16.0,1.0,29.99,NNW,335,3.0,9.0,51,0.00,,,0.00,,2013-01-22 23:24:00,
2013-01-22 18:33:00,16.0,1.0,30.00,North,356,3.0,7.0,50,0.00,,,0.00,,2013-01-22 23:33:00,
2013-01-22 18:43:00,16.0,1.0,30.00,North,356,3.0,7.0,50,0.00,,,0.00,,2013-01-22 23:43:00,
2013-01-22 18:53:00,15.0,1.0,30.01,NNE,15,1.0,6.0,52,0.00,,,0.00,,2013-01-22 23:53:00,
2013-01-22 19:03:00,15.0,1.0,30.02,West,279,2.0,7.0,52,0.00,,,0.00,,2013-01-23 00:03:00,
2013-01-22 19:13:00,15.0,1.0,30.02,West,279,2.0,7.0,52,0.00,,,0.00,,2013-01-23 00:13:00,
2013-01-22 19:23:00,15.0,5.0,30.03,NW,313,3.0,10.0,63,0.00,,,0.00,,2013-01-23 00:23:00,
2013-01-22 19:33:00,15.0,6.0,30.03,West,260,3.0,8.0,68,0.00,,,0.00,,2013-01-23 00:33:00,
2013-01-22 19:43:00,15.0,6.0,30.03,West,260,3.0,8.0,68,0.00,,,0.00,,2013-01-23 00:43:00,
2013-01-22 19:53:00,14.0,5.0,30.03,WNW,288,1.0,6.0,68,0.00,,,0.00,,2013-01-23 00:53:00,
2013-01-22 20:03:00,14.0,5.0,30.03,West,273,0.0,3.0,68,0.00,,,0.00,,2013-01-23 01:03:00,
2013-01-22 20:13:00,14.0,5.0,30.03,West,273,0.0,3.0,68,0.00,,,0.00,,2013-01-23 01:13:00,
2013-01-22 20:23:00,13.0,4.0,30.04,NW,314,0.0,3.0,68,0.00,,,0.00,,2013-01-23 01:23:00,
2013-01-22 20:33:00,13.0,4.0,30.04,NW,307,1.0,4.0,68,0.00,,,0.00,,2013-01-23 01:33:00,
2013-01-22 20:43:00,13.0,4.0,30.04,NW,307,1.0,4.0,68,0.00,,,0.00,,2013-01-23 01:43:00,
2013-01-22 20:53:00,13.0,5.0,30.05,WNW,300,1.0,3.0,69,0.00,,,0.00,,2013-01-23 01:53:00,
2013-01-22 21:03:00,12.0,4.0,30.05,NW,304,0.0,2.0,71,0.00,,,0.00,,2013-01-23 02:03:00,
2013-01-22 21:13:00,12.0,4.0,30.05,NW,304,0.0,2.0,71,0.00,,,0.00,,2013-01-23 02:13:00,
2013-01-22 21:23:00,11.0,4.0,30.05,NW,304,0.0,2.0,72,0.00,,,0.00,,2013-01-23 02:23:00,
2013-01-22 21:33:00,11.0,4.0,30.05,WNW,289,0.0,2.0,72,0.00,,,0.00,,2013-01-23 02:33:00,
2013-01-22 21:43:00,11.0,4.0,30.05,WNW,289,0.0,2.0,72,0.00,,,0.00,,2013-01-23 02:43:00,
2013-01-22 21:53:00,10.0,3.0,30.05,NW,316,0.0,1.0,74,0.00,,,0.00,,2013-01-23 02:53:00,
2013-01-22 22:03:00,10.0,3.0,30.06,NW,304,0.0,1.0,74,0.00,,,0.00,,2013-01-23 03:03:00,
2013-01-22 22:13:00,10.0,3.0,30.06,NW,304,0.0,1.0,74,0.00,,,0.00,,2013-01-23 03:13:00,
2013-01-22 22:23:00,9.0,2.0,30.06,WNW,301,0.0,1.0,74,0.00,,,0.00,,2013-01-23 03:23:00,
2013-01-22 22:33:00,9.0,3.0,30.07,WNW,301,0.0,1.0,75,0.00,,,0.00,,2013-01-23 03:33:00,
2013-01-22 22:43:00,9.0,3.0,30.07,WNW,301,0.0,1.0,75,0.00,,,0.00,,2013-01-23 03:43:00,
2013-01-22 22:53:00,10.0,1.0,30.07,West,281,1.0,4.0,67,0.00,,,0.00,,2013-01-23 03:53:00,
2013-01-22 23:03:00,10.0,-1.0,30.07,NE,37,3.0,7.0,61,0.00,,,0.00,,2013-01-23 04:03:00,
2013-01-22 23:13:00,10.0,-1.0,30.07,NE,37,3.0,7.0,61,0.00,,,0.00,,2013-01-23 04:13:00,
2013-01-22 23:23:00,11.0,-2.0,30.08,NW,318,1.0,6.0,55,0.00,,,0.00,,2013-01-23 04:23:00,
2013-01-22 23:33:00,11.0,-2.0,30.08,West,264,2.0,4.0,54,0.00,,,0.00,,2013-01-23 04:33:00,
2013-01-22 23:43:00,11.0,-2.0,30.08,West,264,2.0,4.0,54,0.00,,,0.00,,2013-01-23 04:43:00,
2013-01-22 23:53:00,10.0,-2.0,30.08,WNW,297,0.0,1.0,57,0.00,,,0.00,,2013-01-23 04:53:00,